RH
83 84 82 87 95 100 100 98 90 81 77 67 67 72 81 86 88 99 93 85 90 100 97 80 67 77 80 77 78 77 85 91 88 88 78 79 89 74 67 55 53 51 69 81 75 83 78 66 68 75 72 70 72 71
80 80 85 79 91 91 93 92 76 74 71 71 70 59 59 65 70 98 99 90 86 95 99 98 90 84 73 62 76 86 73 83 82 77 85 79 86 84 66 78 52 68 52 64 63 60 67 73 72 72 73 70 71 70
83 83 84 86 90 78 89 83 82 76 75 78 77 79 73 64 58 84 97 99 90 98 100 98 92 71 73 68 68 80 89 77 91 86 100 99 94 90 80 72 66 58 62 74 70 67 69 75 77 81 76 72 71 69
74 82 86 87 89 92 83 83 78 74 74 76 71 74 80 75 78 77 95 98 93 97 97 86 76 71 65 62 62 70 72 83 83 86 96 96 80 72 82 67 65 54 72 76 85 76 76 73 77 81 81 75 75 72
75 73 78 88 90 91 87 75 76 74 79 86 88 83 81 86 85 87 96 97 99 83 96 90 86 74 57 54 64 73 72 82 91 89 96 86 91 86 81 89 87 70 69 83 74 65 65 71 82 81 83 81 77 78
84 86 83 83 87 92 89 73 71 69 68 67 87 91 91 85 85 88 99 98 90 100 99 87 76 90 80 77 77 77 77 85 85 93 94 95 85 85 98 86 55 54 59 61 69 77 87 96 86 78 82 82 80 78
86 87 90 91 89 84 81 77 77 70 68 69 74 90 92 78 94 95 96 93 100 100 96 87 81 77 78 87 91 88 81 88 87 85 99 81 79 80 91 82 53 58 61 72 74 82 94 91 90 78 76 80 85 84
80 84 84 85 85 84 83 73 70 70 66 70 71 71 74 89 100 95 83 100 95 81 87 96 90 92 89 95 98 91 94 89 90 87 87 88 84 84 96 64 59 55 71 82 83 73 74 79 80 79 81 83 86 82
89 89 90 88 82 79 81 80 82 78 75 72 70 76 85 97 100 97 90 100 90 73 94 83 89 90 84 91 96 98 94 97 82 91 84 85 78 95 81 73 69 76 77 77 81 82 85 86 83 82 82 81 84 82
97 95 92 91 85 83 84 74 77 79 80 73 92 99 99 100 94 98 100 100 100 96 93 85 83 93 88 98 97 91 100 96 94 86 92 98 79 61 60 64 61 76 78 80 92 97 93 92 89 91 86 79 79 82
95 96 96 94 93 90 87 81 73 84 88 99 100 99 100 97 97 100 98 97 95 97 93 84 82 81 88 95 93 92 97 94 94 84 93 90 90 68 57 57 61 77 76 75 72 73 77 78 86 89 85 82 85 90
96 88 90 98 96 93 91 83 84 95 99 90 92 93 90 85 97 93 95 94 96 75 95 91 89 79 96 92 98 100 96 98 94 82 95 90 78 62 72 77 86 82 79 77 75 80 81 80 83 81 80 85 89 92
100 100 98 97 98 97 93 92 88 96 81 72 84 99 88 90 95 100 100 98 96 97 93 94 95 91 94 95 97 99 97 92 83 94 90 83 75 83 90 89 89 82 81 81 84 87 87 87 82 78 88 87 87 90
99 97 100 100 100 100 96 95 89 79 62 90 95 99 78 98 93 89 78 84 81 89 89 82 96 89 93 98 95 97 92 91 96 96 86 81 84 92 91 88 87 94 92 92 92 88 87 86 88 84 77 80 83 90
100 100 100 100 99 100 98 97 81 74 68 87 92 68 97 84 91 91 76 63 90 89 81 81 87 83 93 96 96 88 98 90 90 86 82 93 94 94 94 90 92 93 94 94 92 91 90 86 88 90 84 80 80 83
100 99 100 100 100 98 99 88 73 56 88 92 97 98 94 91 93 98 96 93 93 81 76 83 87 97 94 91 98 96 90 88 82 88 94 94 96 95 94 92 93 92 91 93 92 90 88 84 86 86 87 81 78 77
91 98 100 100 98 84 80 68 56 84 98 98 95 99 94 95 93 96 94 94 83 73 78 90 97 89 86 95 95 82 90 84 96 94 96 94 93 94 94 94 93 91 92 92 91 88 88 85 85 92 90 92 84 82
96 90 89 88 77 64 63 72 93 92 98 99 100 100 99 100 98 99 100 92 77 83 85 77 81 90 92 89 88 92 98 100 99 98 98 96 93 92 90 92 93 91 92 91 91 91 92 92 87 84 87 87 86 84
79 81 77 68 63 78 95 97 93 97 98 99 99 99 99 100 97 96 91 91 88 84 87 85 87 93 95 96 96 96 98 97 97 98 97 96 95 95 95 94 92 92 93 92 88 89 89 88 88 90 90 86 83 84
59 70 72 67 66 72 86 97 90 94 98 99 99 99 98 98 98 98 98 95 97 97 92 90 96 97 98 96 95 94 96 93 92 94 95 96 93 92 91 88 88 92 93 93 95 97 97 98 99 96 90 88 87 86
34 45 55 60 64 72 84 93 98 99 100 98 99 98 98 97 97 98 98 98 97 96 94 94 95 97 94 96 96 94 93 88 92 87 90 98 96 93 93 95 94 93 92 94 94 97 96 94 96 94 88 90 83 91
43 42 40 45 72 73 82 82 87 93 98 98 94 93 97 97 97 96 89 91 94 98 95 95 95 93 91 92 91 91 90 91 93 95 95 95 94 94 94 97 95 95 96 97 95 95 98 94 86 83 79 78 74 77
42 46 56 62 74 73 80 77 81 80 96 96 94 95 95 96 96 85 96 92 96 97 93 89 92 92 92 94 91 90 87 87 90 94 96 97 98 98 98 99 93 96 95 98 91 92 96 87 80 77 79 81 89 97
47 76 85 85 79 89 83 86 77 78 83 86 86 90 92 93 85 89 96 94 96 95 91 88 87 89 88 86 91 92 95 95 96 99 98 96 94 97 98 96 91 88 84 89 92 97 95 88 83 85 87 92 100 100
79 90 84 94 85 85 90 90 88 88 99 95 90 94 92 88 94 94 94 96 95 96 96 94 91 85 91 96 96 100 94 91 90 92 99 94 98 99 99 99 93 89 88 92 100 100 100 94 89 91 95 97 100 100
97 94 95 99 98 90 92 98 96 98 96 94 95 92 89 90 92 96 92 95 96 95 96 96 93 90 90 89 94 95 100 92 87 91 100 99 92 91 96 98 98 100 92 84 87 97 100 100 100 98 100 97 96 95
100 100 90 80 91 81 94 93 87 94 100 96 94 94 90 97 99 93 94 94 94 98 98 98 98 91 89 98 100 100 99 97 90 91 99 98 94 89 84 92 98 90 88 90 85 78 89 99 100 97 97 98 96 95
98 94 96 96 99 93 100 95 96 94 94 92 88 100 97 91 95 94 95 98 98 98 98 98 98 98 93 97 99 99 99 99 100 100 100 100 100 100 96 94 93 96 98 99 97 94 92 92 92 93 93 95 98 98
98 95 92 100 96 95 96 93 91 94 94 93 98 95 91 93 96 95 98 100 100 95 97 97 97 97 98 100 98 97 98 97 96 96 96 97 95 100 100 100 100 100 98 98 100 98 96 93 92 92 94 94 96 98
97 93 99 97 88 88 98 96 96 97 96 95 92 93 91 96 98 97 97 97 97 98 96 96 96 95 98 96 98 97 97 97 92 85 93 96 92 99 100 100 100 98 95 92 95 99 99 97 98 98 96 98 99 99
94 94 97 95 94 96 97 95 93 91 93 89 94 92 83 98 97 96 95 95 96 96 98 98 98 97 94 98 96 97 97 96 92 78 73 79 87 99 100 100 97 93 88 85 90 94 94 95 94 95 96 96 94 88
100 100 100 100 88 96 95 94 91 89 100 97 100 98 95 99 100 94 97 94 96 98 97 97 98 98 96 92 91 94 92 89 92 86 79 85 94 96 98 98 97 92 88 88 89 89 86 81 83 83 87 87 81 70
98 98 98 99 96 98 97 96 97 96 96 97 96 96 95 98 99 94 97 97 97 96 95 96 96 97 97 98 95 94 96 96 98 97 92 90 93 96 97 98 98 96 90 86 81 71 60 57 59 59 57 58 57 56
Wind_Speed
17 15 15 16 13 14 18 34 38 37 35 32 29 27 26 26 25 15 9 14 11 2 0 3 1 4 3 3 4 4 3 1 2 6 4 4 4 5 2 3 5 7 5 5 5 6 8 5 4 5 1 2 2 0
18 17 16 17 19 20 22 24 28 28 27 26 26 28 28 23 19 19 4 17 13 3 1 2 2 0 0 3 4 2 1 3 4 3 2 1 2 1 5 3 3 4 7 4 8 5 2 6 3 1 3 4 3 3
19 19 18 18 18 23 26 27 25 24 22 22 20 19 18 21 23 24 9 19 13 3 1 2 4 14 6 0 6 2 1 2 3 2 2 1 3 2 3 4 4 4 4 5 3 6 8 7 6 5 6 6 5 5
22 20 21 21 21 20 23 27 26 24 23 23 21 19 19 19 19 23 20 18 11 5 2 4 13 9 25 18 13 4 2 3 5 2 1 3 3 5 3 4 5 5 4 4 6 9 6 9 9 6 4 4 5 8
27 26 22 22 23 22 24 25 26 27 26 23 21 20 19 18 17 17 20 23 21 4 2 1 2 11 15 22 24 17 8 3 2 2 3 3 2 2 3 3 7 6 7 5 11 8 7 5 4 9 10 8 8 11
26 26 26 26 24 24 25 26 25 25 24 22 20 19 19 20 18 15 1 15 31 9 2 1 2 3 7 14 11 13 11 5 3 3 2 3 3 3 4 5 7 12 11 16 13 1 1 3 7 8 8 10 9 9
28 27 26 26 29 29 28 28 28 25 25 25 24 22 20 20 24 8 4 3 35 18 2 2 2 2 9 5 4 3 8 4 4 3 4 4 5 5 4 14 20 12 11 6 6 8 3 7 5 9 9 12 11 12
32 32 32 30 30 32 33 31 29 27 27 25 23 22 20 21 14 7 11 8 29 8 2 3 2 1 7 4 2 4 4 4 5 4 3 4 3 5 6 14 12 12 5 6 10 1 1 8 11 11 15 16 12 11
34 34 34 35 36 34 32 31 31 29 28 27 26 23 20 12 5 5 13 29 9 4 5 4 4 3 4 2 2 2 4 5 4 6 5 6 6 8 12 11 12 12 10 7 9 6 10 12 13 14 14 13 13 12
37 37 36 37 37 37 36 34 32 34 33 29 24 5 3 10 21 15 5 2 1 1 2 3 2 3 4 4 5 3 2 3 3 5 4 5 10 17 10 11 10 9 11 15 10 8 10 12 13 14 14 13 12 14
38 41 43 44 42 41 41 39 36 36 35 9 3 2 13 33 7 1 3 3 2 5 4 4 5 5 2 3 3 4 2 3 3 4 5 3 5 7 14 18 11 9 13 14 3 8 13 12 14 13 12 15 16 17
26 34 41 43 48 49 47 45 43 31 12 11 14 18 11 3 3 4 4 2 4 5 6 6 5 4 4 3 3 3 3 3 4 3 2 4 3 4 2 3 8 12 14 11 7 10 13 14 15 15 15 14 15 15
20 40 42 44 49 56 53 51 49 32 32 24 6 4 4 2 4 8 7 3 3 4 5 4 5 5 3 2 2 2 4 4 3 2 4 4 2 1 3 7 9 9 13 10 9 12 15 15 16 16 14 17 20 20
8 56 52 52 50 59 60 56 50 42 27 3 4 7 5 4 5 4 4 5 3 4 6 7 4 3 3 3 2 3 2 2 3 3 5 1 3 2 5 6 10 9 8 9 9 13 14 15 12 16 20 22 22 20
50 57 57 59 52 64 63 58 52 39 5 4 4 5 5 3 2 3 5 6 4 6 8 4 2 2 1 3 3 2 2 4 5 4 1 2 2 4 7 7 9 8 7 7 10 10 12 16 15 13 16 20 19 20
57 59 57 58 60 62 60 55 37 16 2 2 2 1 1 4 3 3 5 2 4 9 6 2 3 2 3 3 4 7 4 6 3 1 1 1 2 4 6 6 6 8 9 10 11 14 16 16 15 16 16 15 17 21
32 31 55 59 61 60 49 30 10 2 2 3 3 1 3 2 4 3 3 3 6 12 9 3 6 7 3 3 4 4 4 2 1 1 0 1 4 6 6 7 8 12 12 12 14 15 14 15 18 16 13 12 14 17
27 40 49 56 45 33 17 3 3 1 3 2 1 1 1 1 4 3 3 4 7 4 3 3 3 4 4 4 3 2 1 1 2 2 2 3 6 7 9 9 11 13 13 13 15 16 15 16 12 10 13 13 13 13
33 41 42 40 30 11 3 2 5 2 1 0 1 1 2 2 3 2 5 4 4 2 3 2 2 1 1 0 1 1 2 2 2 2 3 7 9 10 12 13 14 13 13 13 13 11 11 10 10 13 14 14 13 14
31 33 44 43 30 3 3 1 2 1 1 1 1 2 2 2 1 3 6 3 2 2 3 2 1 1 1 1 1 1 2 5 6 5 4 4 8 11 10 11 11 15 14 13 11 12 11 9 8 11 13 14 16 16
10 16 24 31 13 6 3 1 1 1 2 2 1 1 2 2 3 3 3 2 3 2 2 1 2 1 1 3 5 5 4 3 2 1 4 5 7 10 10 11 12 11 9 10 10 9 9 8 10 12 15 14 15 15
6 6 4 5 4 3 3 2 2 2 2 2 2 2 2 2 2 2 1 3 2 1 1 2 2 2 4 4 3 6 8 9 8 10 12 14 5 5 7 10 10 7 7 8 9 10 9 11 13 15 16 16 16 18
4 5 6 7 5 4 0 3 3 2 2 2 1 2 2 2 1 0 3 2 2 1 2 3 5 8 7 6 9 9 7 7 6 7 8 8 8 10 11 9 10 10 8 6 10 14 13 15 16 18 18 18 18 17
7 6 5 4 4 1 2 3 2 2 3 2 2 2 2 1 1 2 2 1 1 1 1 4 6 4 4 5 3 4 5 8 9 8 9 10 7 7 8 8 8 8 11 14 14 14 16 17 19 19 20 19 17 15
6 7 5 5 3 4 4 3 3 3 3 2 2 1 1 0 2 2 2 1 1 1 2 2 2 2 3 3 3 4 4 7 8 5 5 10 12 10 9 8 9 10 16 18 13 13 15 18 18 18 18 17 17 16
6 4 3 2 3 3 1 3 2 2 2 2 1 2 2 2 3 2 1 0 1 1 1 2 3 3 2 2 3 3 4 9 12 7 4 8 10 11 8 6 5 5 14 13 18 18 17 17 17 17 16 17 19 20
5 4 2 3 2 2 3 3 2 3 3 2 1 2 2 3 2 1 1 1 1 1 1 1 4 4 4 5 6 7 8 9 6 8 9 8 8 6 8 10 8 8 16 13 14 18 21 19 18 17 17 17 19 20
2 3 3 4 4 2 4 3 3 2 1 1 2 2 3 5 2 1 1 2 3 4 5 5 6 10 10 9 11 14 14 15 16 16 16 13 10 10 9 10 11 13 13 12 12 14 16 18 20 20 21 21 19 16
3 3 2 5 4 4 4 2 2 1 2 0 3 1 1 2 1 1 2 1 3 5 8 9 10 12 13 12 9 7 17 19 12 4 4 3 3 5 10 12 13 14 15 15 13 13 14 17 19 20 19 20 18 17
3 2 3 2 3 3 1 2 1 2 2 1 2 2 1 1 1 2 1 3 4 4 6 9 11 7 8 9 9 10 11 6 5 6 4 5 8 15 14 15 17 18 18 19 20 19 18 19 20 20 21 20 19 19
2 2 3 2 2 1 1 0 1 1 2 2 1 2 2 1 1 0 0 1 1 1 7 10 8 5 8 10 11 8 4 7 4 3 3 9 17 19 18 17 17 17 17 18 20 22 23 22 21 22 21 20 19 18
3 3 3 2 1 1 2 2 1 1 2 2 1 2 1 2 2 1 2 2 3 3 3 7 8 7 6 5 7 6 4 8 8 6 7 15 19 19 19 18 17 17 18 19 20 20 19 21 21 20 20 19 18 16
2 1 1 2 3 2 3 2 4 4 2 1 1 0 1 2 4 2 2 1 2 4 5 4 5 6 8 9 9 8 7 8 8 9 11 15 18 20 19 18 18 18 19 19 19 18 19 19 20 19 19 18 17 15
Wind_Direction
229 218 217 207 195 167 156 170 174 177 180 179 178 175 186 193 190 198 176 182 152 126 358 13 47 131 122 152 156 160 118 115 129 188 194 203 216 213 229 218 198 210 200 197 209 231 260 155 143 213 160 294 347 344
221 221 211 207 193 184 179 177 171 172 176 180 185 179 183 187 180 195 124 186 187 126 78 350 223 277 84 171 140 197 124 152 162 170 211 200 190 210 226 229 259 238 213 204 210 229 204 196 263 295 158 198 198 198
216 211 209 203 199 191 190 189 181 183 183 184 186 189 188 188 189 187 155 170 159 123 86 235 210 225 238 86 9 148 259 153 151 109 144 43 249 148 229 231 230 251 194 222 257 239 240 245 237 233 195 229 190 176
215 208 203 200 196 191 195 189 192 192 196 195 197 198 196 195 193 181 174 183 180 119 213 221 219 223 233 248 275 240 126 118 118 162 171 234 236 194 226 263 252 248 166 237 254 262 270 251 239 210 174 162 156 143
212 211 204 197 195 195 193 194 193 195 195 192 191 195 199 193 190 191 184 190 203 208 175 170 147 213 203 199 222 221 221 185 167 201 203 242 222 261 231 249 252 210 234 238 259 255 232 268 196 159 156 171 157 142
205 202 202 203 196 191 191 193 196 197 200 199 195 194 196 191 181 162 96 221 222 234 130 151 288 207 196 204 199 214 179 223 210 172 226 225 248 199 253 252 242 238 234 242 254 137 121 84 147 151 151 155 151 148
206 201 196 195 194 192 191 189 188 191 193 194 192 192 193 187 175 170 166 216 190 193 167 133 240 236 201 144 155 165 194 182 195 217 216 242 226 230 259 262 264 253 239 217 169 131 153 175 183 167 152 145 142 145
206 202 198 194 191 190 189 192 190 191 191 191 191 188 180 170 159 200 240 225 158 124 137 144 222 183 174 159 174 181 185 174 208 210 192 215 204 218 248 246 247 244 208 176 187 202 197 159 147 148 144 141 144 149
208 203 197 194 193 191 188 188 188 187 184 183 180 170 160 175 149 170 205 167 149 167 160 173 160 197 161 118 146 216 201 190 190 214 211 182 215 224 230 229 222 203 199 189 159 146 148 157 159 157 155 158 157 164
209 206 201 196 191 187 184 181 179 176 173 168 154 115 160 161 142 132 76 81 40 267 156 175 165 150 171 163 176 202 199 209 227 215 150 221 243 244 225 228 230 191 169 151 141 165 168 167 169 168 173 169 168 172
213 206 200 193 186 183 180 176 174 167 153 146 129 116 133 129 92 123 140 168 198 180 186 195 179 153 208 166 187 213 212 191 220 191 204 233 252 233 210 225 212 171 171 178 182 171 180 173 169 168 171 166 167 169
196 198 199 193 185 178 176 173 165 157 150 143 123 126 142 113 156 161 179 153 198 190 166 185 188 149 155 159 192 202 216 204 233 136 210 251 256 237 300 204 148 153 156 161 150 158 167 163 165 168 162 158 162 160
211 199 183 178 178 175 170 167 164 156 134 132 106 137 143 202 175 173 185 188 170 173 168 157 151 152 128 187 163 263 213 206 117 185 230 234 256 1 139 131 123 127 137 124 119 129 138 140 149 152 144 157 170 168
174 180 180 164 165 166 165 162 159 151 152 128 127 146 180 194 225 176 169 171 191 121 141 156 148 173 163 157 154 227 232 198 224 231 233 240 323 165 128 132 126 130 128 129 131 133 131 137 143 162 166 170 169 165
100 130 144 148 154 157 156 156 156 161 164 133 172 184 190 206 153 209 206 164 170 128 138 148 92 118 126 128 201 159 209 239 227 235 237 332 300 145 130 126 126 128 129 126 130 128 135 141 140 142 163 169 172 167
94 111 126 138 141 146 151 153 161 180 15 97 155 135 160 132 186 197 186 174 156 143 126 112 139 129 211 175 168 209 199 220 240 234 322 34 157 126 128 126 118 118 123 126 131 139 144 147 147 148 151 162 169 171
92 109 127 132 137 141 148 151 169 84 125 227 205 191 195 123 183 171 146 188 153 149 162 159 160 200 131 192 209 196 212 221 272 285 37 200 162 137 115 107 114 121 118 126 131 138 138 143 144 140 141 158 163 171
98 132 134 137 137 134 125 87 34 79 243 252 232 110 104 54 124 124 125 145 152 155 143 162 124 186 194 191 221 190 142 97 52 80 86 108 111 117 125 123 117 123 127 131 138 138 141 142 147 147 141 146 141 145
131 146 153 156 151 106 98 192 224 170 214 84 47 34 70 71 40 90 114 84 87 85 90 49 96 178 179 30 272 191 186 157 142 90 77 80 101 113 116 118 123 128 133 138 139 143 153 160 155 151 152 155 152 154
114 146 163 162 166 126 140 126 208 112 104 118 53 53 76 57 64 77 82 65 73 60 63 59 56 354 301 281 256 191 129 131 129 117 97 97 113 117 125 135 134 134 125 125 129 141 140 133 146 156 161 162 156 159
109 106 138 168 179 192 99 111 78 82 96 70 5 78 70 47 55 54 62 26 72 61 112 111 119 75 52 55 64 99 108 123 121 125 148 135 125 122 119 121 129 132 135 146 150 152 155 159 160 165 168 169 168 162
38 48 94 60 88 79 84 12 110 123 74 77 53 41 57 66 62 44 5 58 57 59 89 112 123 116 82 66 67 83 109 105 97 98 105 122 134 134 143 147 138 142 155 166 166 163 158 160 164 165 165 160 163 161
62 49 52 31 71 50 320 342 72 44 78 76 59 64 44 73 74 235 80 78 99 49 88 94 92 98 110 105 97 85 89 108 104 112 119 116 125 129 134 149 157 146 143 145 156 152 151 158 160 155 154 152 152 151
47 53 43 49 45 101 350 29 32 58 51 60 79 90 40 64 17 61 89 70 41 80 100 126 133 114 101 100 86 89 91 110 105 103 126 125 120 122 136 133 140 151 158 149 149 146 151 154 158 157 159 155 156 152
67 352 60 2 347 61 50 29 18 61 81 48 87 47 76 278 89 71 125 131 76 95 99 128 125 129 129 118 107 99 119 143 132 123 126 144 125 119 107 110 128 147 157 147 146 149 154 158 161 160 161 160 159 159
74 341 56 9 325 85 193 83 75 128 104 64 41 346 22 80 76 141 137 93 109 118 138 157 146 134 126 151 148 137 124 149 141 113 101 158 165 155 153 152 150 165 176 174 162 158 159 164 165 165 163 168 168 158
53 352 350 34 331 75 55 36 62 84 74 102 328 53 67 93 180 191 150 14 109 61 21 219 205 178 159 144 131 129 136 154 156 141 134 134 143 162 175 169 179 173 177 180 178 174 169 167 166 167 163 164 167 168
76 31 60 332 49 25 107 64 50 64 64 47 81 56 126 181 156 161 124 100 91 97 96 96 120 148 148 150 149 139 126 130 127 122 112 99 103 119 131 138 142 151 161 169 173 174 175 174 172 168 165 161 162 168
34 338 79 27 20 44 34 43 70 65 337 68 118 171 137 67 21 59 44 85 146 134 117 109 101 121 122 131 147 162 152 149 140 137 136 143 145 115 132 137 140 145 146 144 146 155 162 164 164 163 162 157 154 155
327 8 82 47 71 53 15 352 40 341 11 62 103 85 91 75 77 48 88 101 124 132 161 152 145 141 159 154 148 150 163 172 190 183 164 183 186 160 156 152 147 145 146 147 145 144 151 149 148 145 144 142 146 147
336 45 63 38 73 64 74 32 315 344 356 14 95 111 152 150 197 252 140 289 253 286 182 179 188 187 166 164 170 165 180 186 166 162 173 171 167 163 162 162 158 155 154 152 148 147 147 146 147 146 146 145 149 151
17 48 113 86 114 62 20 353 340 20 359 46 352 52 69 28 264 268 335 304 212 190 171 192 197 189 186 170 173 176 187 187 185 177 166 165 163 162 162 162 159 158 154 151 149 149 153 150 148 148 147 148 151 154
26 20 62 76 17 6 341 40 19 340 22 19 336 224 214 199 243 232 207 40 191 204 201 190 187 188 188 186 181 175 164 165 174 174 170 169 167 163 162 161 160 159 156 153 151 151 150 149 147 149 150 152 153 155